Terminal Aerodrome Forecast
Issued by NWS

Home | Current Version | Previous Version | Text Only | Print | Product List | Glossary On
Versions: 1 2 3 4 5 6 7 8 9 10 11 12 13 14 15 16 17 18 19 20 21 22 23 24 25 26 27 28 29 30 31 32 33 34 35 36 37 38 39 40 41 42 43
000
FTAK31 PANC 190257 AAB
TAFADU
TAF AMD
PADU 190257Z 1903/1924 33025G45KT 3SM -SN BR OVC020
      TEMPO 1903/1907 2SM -SN BR SCT005 OVC012
     FM190800 31030G45KT 6SM -SHSN SCT010 OVC035
     FM191600 24015G25KT P6SM -SHSN SCT025 OVC035=

USA.gov is the U.S. government's official web portal to all federal, state and local government web resources and services.